Location: ?????????
(55.6553°N, 38.9075°E)
Time: 12:38:13
(UTC+00:00)

Cosmos 2278 Rocket - Visible Passes

Search period start: 21 January 2020 00:00
Search period end: 31 January 2020 00:00
Orbit: 843 x 844 km, 71.0° (Epoch: 21 January)

Date Brightness Start Highest point End Pass type
(mag) Time Alt. Az. Time Alt. Az. Time Alt. Az.
21 Jan 4.2 01:45:47 17° N 01:46:03 17° N 01:49:44 10° NE visible
21 Jan 3.8 03:27:38 11° NNW 03:32:08 27° NNE 03:36:53 10° E visible
21 Jan 5.1 23:49:40 10° NNE 23:49:40 10° NNE 23:49:44 10° NNE visible
22 Jan 4.3 01:31:30 17° N 01:31:30 17° N 01:35:06 10° NE visible
22 Jan 3.9 03:13:21 12° NNW 03:17:32 26° NNE 03:22:15 10° E visible
23 Jan 4.3 01:17:13 17° N 01:17:13 17° N 01:20:29 10° NE visible
23 Jan 3.9 02:59:03 13° NNW 03:02:56 26° NNE 03:07:37 10° E visible
23 Jan 2.5 04:42:19 10° NNW 04:48:00 71° NE 04:53:40 10° SE visible
24 Jan 4.4 01:02:56 17° N 01:02:56 17° N 01:05:51 10° NE visible
24 Jan 3.9 02:44:47 15° NNW 02:48:19 25° NNE 02:52:59 10° E visible
24 Jan 2.5 04:27:44 10° NNW 04:33:25 69° NE 04:39:05 10° SE visible
25 Jan 4.5 00:48:41 16° NNE 00:48:41 16° NNE 00:51:14 10° NE visible
25 Jan 4.0 02:30:30 16° NNW 02:33:43 25° NNE 02:38:21 10° E visible
25 Jan 2.5 04:13:11 10° NNW 04:18:51 67° NE 04:24:29 10° SE visible
26 Jan 4.6 00:34:25 16° NNE 00:34:25 16° NNE 00:36:38 10° NE visible
26 Jan 4.0 02:16:15 17° NNW 02:19:06 24° NNE 02:23:42 10° E visible
26 Jan 2.6 03:58:37 10° NNW 04:04:17 65° NE 04:09:55 10° SE visible
27 Jan 4.7 00:20:10 15° NNE 00:20:10 15° NNE 00:22:00 10° NE visible
27 Jan 4.0 02:02:00 18° N 02:04:31 24° NNE 02:09:04 10° E visible
27 Jan 2.6 03:44:03 10° NNW 03:49:42 64° NE 03:55:19 10° SE visible
28 Jan 4.8 00:05:55 14° NNE 00:05:55 14° NNE 00:07:24 10° NE visible
28 Jan 4.0 01:47:46 19° N 01:49:54 24° NNE 01:54:25 10° ENE visible
28 Jan 2.6 03:29:36 11° NNW 03:35:07 62° NE 03:40:44 10° SE visible
28 Jan 4.9 23:51:41 13° NNE 23:51:41 13° NNE 23:52:47 10° NE visible
29 Jan 4.0 01:33:32 20° N 01:35:17 23° NNE 01:39:48 10° ENE visible
29 Jan 2.7 03:15:23 12° NNW 03:20:33 60° NE 03:26:09 10° SE visible
29 Jan 5.0 23:37:30 12° NNE 23:37:30 12° NNE 23:38:10 10° NE visible
30 Jan 4.1 01:19:20 21° N 01:20:41 23° NNE 01:25:09 10° ENE visible
30 Jan 2.7 03:01:11 14° NNW 03:05:58 58° NE 03:11:33 10° SE visible
30 Jan 5.1 23:23:19 11° NE 23:23:19 11° NE 23:23:33 10° NE visible
